Preview of NWS' New Version of Forecast
This preview is not operational and should not be used for support decisions.

Regional Weather Roundup (RWR)

Issued by National Weather Service (NWS)

                            
000
ASUS45 KBOI 181610
RWRID 

IDAHO REGIONAL WEATHER ROUNDUP
NATIONAL WEATHER SERVICE BOISE ID
1000 AM MDT SAT MAY 18 2019

NOTE: "FAIR" INDICATES FEW OR NO CLOUDS BELOW 12000 FEET
WITH NO SIGNIFICANT WEATHER AND/OR OBSTRUCTIONS TO VISIBILITY

IDZ012-014-181700-
SOUTHWEST IDAHO

  
CITY           SKY/WX    TMP DP  RH WIND       PRES   REMARKS
BOISE          PTSUNNY   52  31  44 VRB5      29.92S                  
CALDWELL       SUNNY     53  42  66 W8        29.93S                  
MOUNTAIN HOME  MOSUNNY   53  49  86 NW16      29.91S                  
$$

IDZ016-017-181700-
SOUTHCENTRAL IDAHO

  
CITY           SKY/WX    TMP DP  RH WIND       PRES   REMARKS
BURLEY         CLOUDY    48  39  71 W9G21     29.90R                  
JEROME         PTSUNNY   49  42  77 W18G26    29.91R                  
TWIN FALLS     PTSUNNY   49  39  68 W21G26    29.92R                  
$$

IDZ019>023-181700-
SOUTHEAST IDAHO

  
CITY           SKY/WX    TMP DP  RH WIND       PRES   REMARKS
IDAHO FALLS    CLOUDY    45  41  86 SW13      29.90R                  
POCATELLO      CLOUDY    44  41  89 SW15      29.91R                  
REXBURG        CLOUDY    44  41  89 SW8       29.88R                  
$$

IDZ006-010-011-018-031-032-181700-
CENTRAL IDAHO MOUNTAINS

  
CITY           SKY/WX    TMP DP  RH WIND       PRES   REMARKS
MCCALL         PTSUNNY   42  37  82 NW6       29.90R                  
HAILEY         MOSUNNY   46  37  71 CALM      29.88S                  
STANLEY          N/A     42  33  70 CALM      29.91S                  
SALMON         CLOUDY    47  39  74 CALM      29.90F                  
CHALLIS        CLOUDY    47  39  74 CALM      29.89S                  
$$

IDZ002-004-006-007-026-181700-
NORTHERN IDAHO

  
CITY           SKY/WX    TMP DP  RH WIND       PRES   REMARKS
LEWISTON       PTSUNNY   59  42  53 VRB3      29.90R                  
LOWELL           N/A     51  48  89 CALM      29.93F                  
COEUR D'ALENE  LGT RAIN  46  43  89 SE6       29.92R                  
MULLAN PASS    SNOW      34  32  92 CALM      29.87S VSB<1/4          
$$